Flag for Canada Weather past 2 weeks in Brampton, Ontario, Canada

Now
28 °F

Passing clouds.


Feels Like: 28 °F
Forecast: N/A
Wind: 2 mph from North

Location: Toronto Pearson International Airport

Current Time: Dec 20, 2014 at 6:57:25 PM

Latest Report: Dec 20, 2014 at 6:00 PM


Visibility: 15 mi

Pressure: 30.29 "Hg

Humidity: 80%

Dew point: 23 °F

Location of BramptonLocation

Historic Weather in Brampton — Graph

°F

Brampton temperature yesterday

Maximum temperature yesterday: 30 °F (at 1:00 PM)
Minimum temperature yesterday: 23 °F (at 6:00 AM)
Average temperature yesterday: 27 °F

Past Weeks' High & Low Weather Summary

 TemperatureHumidityPressure
High41 °F (Dec 6, 1:00 PM)100% (Dec 14, 2:00 AM)30.81 "Hg (Dec 14, 2:00 AM)
Low21 °F (Dec 7, 6:00 AM)34% (Dec 7, 1:00 PM)29.73 "Hg (Dec 16, 2:00 PM)
Average32 °F82%30.12 "Hg
* Reported Dec 5 5:00 PM — Dec 20 5:00 PM, Brampton, Weather by CustomWeather, © 2014

Note: Actual official high and low records may vary slightly from our data, if they occured in-between our weather recording intervals... More about our weather records

Advertising

Brampton weather history for previous 24 hours

 ConditionsComfort  
Time TempWeatherWind HumidityBarometerVisibility
5:00 PM
Dec 20
28 °FPartly cloudy.6 mph80%30.29 "Hg15 mi
4:00 PM30 °FPartly sunny.5 mph69%30.27 "Hg15 mi
3:00 PM30 °FPartly sunny.7 mph69%30.27 "Hg15 mi
2:00 PM32 °FScattered clouds.3 mph51%30.27 "Hg15 mi
1:00 PM30 °FScattered clouds.7 mph59%30.28 "Hg15 mi
12:00 PM28 °FScattered clouds.3 mph69%30.30 "Hg15 mi
11:00 AM27 °FScattered clouds.6 mph80%30.32 "Hg15 mi
10:00 AM25 °FScattered clouds.7 mph86%30.34 "Hg15 mi
9:00 AM23 °FBroken clouds.8 mph93%30.33 "Hg15 mi
8:00 AM21 °FBroken clouds.6 mph93%30.32 "Hg15 mi
7:00 AM23 °FPassing clouds.8 mph86%30.32 "Hg15 mi
6:00 AM21 °FPassing clouds.6 mph86%30.32 "Hg15 mi
5:00 AM21 °FPassing clouds.6 mph86%30.30 "Hg15 mi
4:00 AM21 °FPassing clouds.6 mph86%30.28 "Hg15 mi
3:00 AM23 °FPassing clouds.7 mph86%30.27 "Hg15 mi
2:00 AM25 °FPassing clouds.8 mph80%30.26 "Hg15 mi
1:00 AM25 °FPassing clouds.7 mph86%30.28 "Hg15 mi
12:00 AM25 °FPassing clouds.8 mph86%30.29 "Hg15 mi
11:00 PM
Dec 19
27 °FPassing clouds.10 mph74%30.30 "Hg15 mi
10:00 PM27 °FPartly cloudy.7 mph74%30.30 "Hg15 mi
9:00 PM27 °FPartly cloudy.10 mph74%30.29 "Hg15 mi
8:00 PM28 °FPassing clouds.15 mph69%30.28 "Hg15 mi
7:00 PM28 °FPartly cloudy.15 mph69%30.28 "Hg15 mi
6:00 PM28 °FPassing clouds.14 mph69%30.27 "Hg15 mi
Weather by CustomWeather, © 2014

See weather overviewHow to use our weather pages